Weather History for Kankakee, IL

Change the Weather History Date:

Wednesday, February 22, 2012

  Actual Average Record
Temperature  
Mean Temperature 40 °F -  
Max Temperature 48 °F 43 °F 64 °F (1983)
Min Temperature 31 °F 25 °F -5 °F (1978)
Degree Days  
Heating Degree Days 26    
Moisture  
Dew Point 31 °F    
Average Humidity 76    
Maximum Humidity 92    
Minimum Humidity 56    
Precipitation  
Precipitation 0.00 in - - ()
Sea Level Pressure  
Sea Level Pressure 29.57 in    
Wind  
Wind Speed 5 mph (South)    
Max Wind Speed 9 mph    
Max Gust Speed -    
Visibility 10 miles    
Events      
Averages and records for this station are not official NWS values.
T = Trace of Precipitation, MM = Missing Value Source: NWS Daily Summary

Daily Weather History Graph

Daily Weather History Graph

Search for Another Location

Airport:

Trip Planner

Search our weather history database for the weather conditions in past years. The results will help you decide how hot, cold, wet, or windy it might be!

Date:

Astronomy

Feb. 22, 2012 Rise Set
Actual Time 6:36 AM CST 5:33 PM CST
Civil Twilight 6:08 AM CST 6:01 PM CST
Nautical Twilight 5:37 AM CST 6:33 PM CST
Astronomical Twilight 5:05 AM CST 7:05 PM CST
Moon 6:34 AM CST (2/22) 6:41 PM CST (2/22)
Length of Visible Light 11h 52m
Length of Day
10h 56m
New Moon, 1% of the Moon is Illuminated
Feb 22
New Moon
Feb 29
First Quarter
Mar 8
Full
Mar 14
Last Quarter
Mar 22
New

Hourly Weather History & Observations

Time (CST) Temp. Windchill Dew Point Humidity Pressure Visibility Wind Dir Wind Speed Gust Speed Precip Events Conditions
12:15 AM 34.9 °F 28.3 °F 29.7 °F 81% 29.73 in 10.0 mi WSW 8.1 mph - N/A   Overcast
12:35 AM 34.7 °F 27.5 °F 29.3 °F 81% 29.73 in 10.0 mi SSW 9.2 mph - N/A   Mostly Cloudy
12:55 AM 32.5 °F 25.5 °F 28.8 °F 86% 29.73 in 10.0 mi SW 8.1 mph - N/A   Scattered Clouds
1:15 AM 32.0 °F 25.6 °F 28.9 °F 88% 29.72 in 10.0 mi SW 6.9 mph - N/A   Clear
1:35 AM 33.4 °F 27.3 °F 28.8 °F 83% 29.72 in 10.0 mi WSW 6.9 mph - N/A   Mostly Cloudy
1:55 AM 32.9 °F 27.5 °F 28.8 °F 85% 29.72 in 10.0 mi WSW 5.8 mph - N/A   Overcast
2:15 AM 31.8 °F 24.6 °F 27.9 °F 85% 29.72 in 10.0 mi South 8.1 mph - N/A   Mostly Cloudy
2:35 AM 31.5 °F 25.8 °F 28.2 °F 88% 29.71 in 10.0 mi SSW 5.8 mph - N/A   Mostly Cloudy
2:55 AM 32.9 °F 26.7 °F 29.1 °F 86% 29.70 in 10.0 mi SSW 6.9 mph - N/A   Overcast
3:15 AM 33.4 °F 28.1 °F 29.3 °F 85% 29.68 in 10.0 mi SSW 5.8 mph - N/A   Overcast
3:35 AM 33.1 °F 30.0 °F 29.3 °F 86% 29.68 in 10.0 mi South 3.5 mph - N/A   Overcast
3:55 AM 32.9 °F - 29.3 °F 87% 29.67 in 10.0 mi Calm Calm - N/A   Overcast
4:15 AM 33.1 °F - 29.1 °F 85% 29.67 in 10.0 mi Calm Calm - N/A   Overcast
4:35 AM 32.9 °F 27.5 °F 28.9 °F 85% 29.66 in 10.0 mi South 5.8 mph - N/A   Overcast
4:55 AM 33.1 °F - 29.3 °F 86% 29.66 in 10.0 mi Calm Calm - N/A   Overcast
5:15 AM 33.3 °F 28.9 °F 30.0 °F 88% 29.65 in 10.0 mi South 4.6 mph - N/A   Overcast
5:35 AM 33.8 °F - 30.2 °F 87% 29.64 in 10.0 mi Calm Calm - N/A   Overcast
5:55 AM 32.9 °F - 30.2 °F 90% 29.63 in 10.0 mi Calm Calm - N/A   Overcast
6:15 AM 32.9 °F - 30.6 °F 91% 29.63 in 10.0 mi Calm Calm - N/A   Overcast
6:35 AM 32.7 °F 28.3 °F 30.7 °F 92% 29.62 in 10.0 mi SE 4.6 mph - N/A   Overcast
6:55 AM 33.3 °F - 30.7 °F 90% 29.62 in 10.0 mi Calm Calm - N/A   Overcast
7:15 AM 33.8 °F 30.8 °F 30.7 °F 89% 29.62 in 10.0 mi SSE 3.5 mph - N/A   Overcast
7:35 AM 33.8 °F - 30.2 °F 87% 29.61 in 10.0 mi Calm Calm - N/A   Overcast
7:55 AM 34.3 °F 31.4 °F 31.1 °F 88% 29.60 in 10.0 mi SE 3.5 mph - N/A   Overcast
8:15 AM 34.9 °F - 31.3 °F 87% 29.59 in 10.0 mi Calm Calm - N/A   Overcast
8:35 AM 35.1 °F - 31.8 °F 88% 29.58 in 10.0 mi Calm Calm - N/A   Overcast
8:55 AM 36.0 °F 32.1 °F 31.8 °F 85% 29.57 in 10.0 mi NE 4.6 mph - N/A   Overcast
9:15 AM 38.3 °F 33.9 °F 32.0 °F 78% 29.56 in 10.0 mi NE 5.8 mph - N/A   Overcast
9:35 AM 37.8 °F 35.3 °F 31.8 °F 79% 29.56 in 10.0 mi East 3.5 mph - N/A   Overcast
9:55 AM 39.2 °F 35.0 °F 32.0 °F 75% 29.54 in 10.0 mi NE 5.8 mph - N/A   Overcast
10:15 AM 39.6 °F 36.3 °F 32.4 °F 75% 29.54 in 10.0 mi ENE 4.6 mph - N/A   Overcast
10:35 AM 40.3 °F 35.5 °F 31.8 °F 72% 29.54 in 10.0 mi East 6.9 mph - N/A   Overcast
10:55 AM 40.8 °F 37.8 °F 31.8 °F 70% 29.54 in 10.0 mi ESE 4.6 mph - N/A   Overcast
11:15 AM 41.7 °F 37.3 °F 31.1 °F 66% 29.53 in 10.0 mi East 6.9 mph - N/A   Mostly Cloudy
11:35 AM 41.4 °F 36.8 °F 32.7 °F 71% 29.51 in 10.0 mi ESE 6.9 mph - N/A   Overcast
11:55 AM 41.9 °F 39.0 °F 32.7 °F 70% 29.51 in 10.0 mi ESE 4.6 mph - N/A   Overcast
12:15 PM 42.8 °F 39.3 °F 32.4 °F 67% 29.48 in 10.0 mi SE 5.8 mph - N/A   Mostly Cloudy
12:35 PM 42.8 °F 40.1 °F 32.0 °F 66% 29.48 in 10.0 mi ESE 4.6 mph - N/A   Mostly Cloudy
12:55 PM 43.2 °F 41.5 °F 32.0 °F 65% 29.47 in 10.0 mi ESE 3.5 mph - N/A   Mostly Cloudy
1:15 PM 43.3 °F 40.7 °F 32.2 °F 65% 29.46 in 10.0 mi East 4.6 mph - N/A   Mostly Cloudy
1:35 PM 43.7 °F 41.1 °F 32.2 °F 64% 29.45 in 10.0 mi East 4.6 mph - N/A   Mostly Cloudy
1:55 PM 43.9 °F 42.3 °F 32.4 °F 64% 29.45 in 10.0 mi SE 3.5 mph - N/A   Scattered Clouds
2:15 PM 45.5 °F 42.5 °F 33.3 °F 62% 29.43 in 10.0 mi SSE 5.8 mph - N/A   Scattered Clouds
2:35 PM 46.6 °F - 32.5 °F 58% 29.43 in 10.0 mi South 3.5 mph - N/A   Clear
2:55 PM 47.5 °F - 32.7 °F 57% 29.42 in 10.0 mi SSW 5.8 mph - N/A   Scattered Clouds
3:15 PM 48.6 °F - 33.4 °F 56% 29.42 in 10.0 mi WSW 6.9 mph - N/A   Mostly Cloudy
3:35 PM 47.7 °F - 33.1 °F 57% 29.43 in 10.0 mi West 6.9 mph - N/A   Overcast
3:55 PM 47.1 °F - 34.0 °F 60% 29.42 in 10.0 mi West 3.5 mph - N/A   Overcast
4:15 PM 47.1 °F - 34.2 °F 61% 29.43 in 10.0 mi West 5.8 mph - N/A   Mostly Cloudy
4:35 PM 46.9 °F - 34.0 °F 61% 29.43 in 10.0 mi West 5.8 mph - N/A   Overcast
4:55 PM 46.8 °F - 33.8 °F 61% 29.42 in 10.0 mi WNW 3.5 mph - N/A   Overcast
5:15 PM 45.9 °F 44.6 °F 33.4 °F 62% 29.43 in 10.0 mi WNW 3.5 mph - N/A   Mostly Cloudy
5:35 PM 45.0 °F - 33.6 °F 64% 29.44 in 10.0 mi Calm Calm - N/A   Scattered Clouds
5:55 PM 42.8 °F - 33.1 °F 69% 29.45 in 10.0 mi Calm Calm - N/A   Scattered Clouds
6:15 PM 40.8 °F - 33.1 °F 74% 29.45 in 10.0 mi Calm Calm - N/A   Overcast
6:35 PM 40.8 °F - 33.3 °F 74% 29.45 in 10.0 mi Calm Calm - N/A   Overcast
6:55 PM 40.1 °F - 33.1 °F 76% 29.46 in 10.0 mi Calm Calm - N/A   Overcast
7:15 PM 38.8 °F - 33.3 °F 80% 29.46 in 10.0 mi Calm Calm - N/A   Overcast
7:35 PM 36.7 °F - 32.2 °F 84% 29.46 in 10.0 mi Calm Calm - N/A   Mostly Cloudy
7:55 PM 36.9 °F - 33.1 °F 86% 29.46 in 10.0 mi Calm Calm - N/A   Clear
8:15 PM 35.4 °F - 32.9 °F 91% 29.46 in 10.0 mi Calm Calm - N/A   Clear
8:35 PM 34.5 °F - 32.7 °F 93% 29.46 in 10.0 mi Calm Calm - N/A   Clear
8:55 PM 33.3 °F 30.2 °F 32.0 °F 95% 29.46 in 10.0 mi East 3.5 mph - N/A   Clear
9:15 PM 32.9 °F - 32.0 °F 96% 29.47 in 4.0 mi Calm Calm - N/A   Clear
9:35 PM 31.1 °F 27.7 °F 30.4 °F 97% 29.48 in 7.0 mi West 3.5 mph - N/A   Scattered Clouds
9:55 PM 31.8 °F - 30.7 °F 96% 29.48 in 10.0 mi Calm Calm - N/A   Overcast
10:15 PM 32.0 °F 28.7 °F 31.1 °F 96% 29.48 in 10.0 mi WSW 3.5 mph - N/A   Mostly Cloudy
10:35 PM 31.6 °F 28.3 °F 30.4 °F 95% 29.48 in 10.0 mi WSW 3.5 mph - N/A   Scattered Clouds
10:55 PM 32.2 °F 28.9 °F 31.5 °F 97% 29.49 in 10.0 mi WSW 3.5 mph - N/A   Mostly Cloudy
11:15 PM 32.9 °F 29.8 °F 31.8 °F 96% 29.48 in 10.0 mi West 3.5 mph - N/A   Mostly Cloudy
11:35 PM 33.3 °F - 32.0 °F 95% 29.48 in 10.0 mi Calm Calm - N/A   Scattered Clouds
11:55 PM 32.2 °F - 31.3 °F 96% 29.48 in 10.0 mi Calm Calm - N/A   Scattered Clouds